"Pseudo-MPEC" for P10Ny0k

Created 2019 May 21 9:07:20 UT using Find_Orb

Click here for an explanation of pseudo-MPECs

 
 Astrometry: 
     P10Ny0k  C2019 05 07.ECX8nA/PT?$?L0a+[A(bkCfaE+Zw=)+d.t_r%m7]2dnsI)oQk`OF51
     P10Ny0k  C2019 05 072!N=\K4?1+Fu9tAstrometry4redacted;ey'W]9A+gD4\PYv%ExF51
     P10Ny0k  C2019 05 07S=4X+Si6y*tRIsY0M!;:Fclick)vv=LUJbY^@?l0/kNme'=9:CIgF51
     P10Ny0k  C2019 05 07E?'EhereHforWu?*P\.8oGX49Bx^explanationKk$,b=F`@h_9IF51
     P10Ny0k  C2019 05 08.17188 14 57 13.41 +23 53 33.4    ~5857 22.6 GVNEOCPV06
     P10Ny0k  C2019 05 08.18103 14 57 12.68 +23 53 31.7    ~5857 22.9 GVNEOCPV06
     P10Ny0k  C2019 05 08.18870 14 57 12.22 +23 53 30.9    ~5857       VNEOCPV06

Station data:
(F51) Pan-STARRS 1, Haleakala  (N20.707235 W156.255910)  US/Hawaii.
   Observers N. Primak, A. Schultz, S. Watters, J. Thiel, T. Goggia. Measurer
   PS1 Science Consortium. 1.8-m Ritchey-Chrétien + CCD.
(V06) Catalina Sky Survey-Kuiper  (N32.416847 W110.732550)  US/Arizona.
   Observers T. A. Pruyne, B. M. Africano, E. J. Christensen, G. A. Farneth,
   D. C. Fuls, A. R. Gibbs, A. D. Grauer, H. Groeller, J. A. Johnson, R. A.
   Kowalski, S. M. Larson, G. J. Leonard, R. L. Seaman, F. C. Shelly. 1.55-m
   reflector + CCD.

Orbital elements:  P10Ny0k
   Perihelion 2018 May 28.493847 +/- 273 TT = 11:51:08 (JD 2458266.993847)
Epoch 2019 May  8.0 TT = JDT 2458611.5   Earth MOID: 0.6310   Ma: 0.0113
M 139.96270483 +/- 120              (J2000 ecliptic)          AutoNEOCP
n   0.40627055 +/- 0.0799           Peri.  319.18408 +/- 55
a   1.80547918 +/- 0.237            Node   112.16225 +/- 14
e   0.1217203 +/- 0.118             Incl.   21.43902 +/- 5.9
P   2.43/886.09d           H 20.1   G  0.15   U 11.1  SR
q 1.58571555 +/- 0.139    Q 2.02524282 +/- 0.686
From 7 observations 2019 May 7-8 (20.2 hr); mean residual 0".51
Residuals in arcseconds: 
190507 F51  .09-  .08-    190507 F51  .00   .07-    190508 V06  1.5+  .28+    
190507 F51  .10+  .14+    190508 V06  .84-  .07-    
190507 F51  .02+  .01+    190508 V06  .70-  .22-    

Ephemerides (geocentric):
Date (UTC) HH   RA              Dec         delta   r     elong  mag " sig PA
---- -- -- --  -------------   -----------  ------ ------ -----  --- ---- ---
2019 05 21 09  14 41 07.021   +22 28 22.95  1.1516 1.9938 134.2 23.0  951 118
2019 05 21 10  14 41 04.312   +22 27 58.78  1.1518 1.9939 134.2 23.0  956 118
2019 05 21 11  14 41 01.605   +22 27 34.57  1.1520 1.9939 134.2 23.0  962 118
2019 05 21 12  14 40 58.901   +22 27 10.32  1.1522 1.9939 134.1 23.0  968 118
2019 05 21 13  14 40 56.200   +22 26 46.02  1.1524 1.9939 134.1 23.0  974 118
2019 05 21 14  14 40 53.501   +22 26 21.67  1.1526 1.9940 134.1 23.0  980 118
2019 05 21 15  14 40 50.805   +22 25 57.28  1.1528 1.9940 134.1 23.0  986 118
2019 05 21 16  14 40 48.112   +22 25 32.84  1.1530 1.9940 134.0 23.0  992 118
2019 05 21 17  14 40 45.421   +22 25 08.35  1.1531 1.9941 134.0 23.0  998 118
2019 05 21 18  14 40 42.734   +22 24 43.82  1.1533 1.9941 134.0 23.0 1004 118
2019 05 21 19  14 40 40.049   +22 24 19.24  1.1535 1.9941 134.0 23.0 1011 118
2019 05 21 20  14 40 37.367   +22 23 54.62  1.1537 1.9942 134.0 23.0 1017 118
2019 05 21 21  14 40 34.687   +22 23 29.95  1.1539 1.9942 133.9 23.0 1023 118
2019 05 21 22  14 40 32.010   +22 23 05.23  1.1541 1.9942 133.9 23.0 1029 118
2019 05 21 23  14 40 29.336   +22 22 40.47  1.1543 1.9943 133.9 23.0 1035 118
2019 05 22 00  14 40 26.665   +22 22 15.67  1.1545 1.9943 133.9 23.0 1041 118
2019 05 22 01  14 40 23.997   +22 21 50.82  1.1547 1.9943 133.9 23.0 1047 118
2019 05 22 02  14 40 21.331   +22 21 25.92  1.1549 1.9943 133.8 23.0 1054 118
2019 05 22 03  14 40 18.668   +22 21 00.98  1.1551 1.9944 133.8 23.0 1060 117
2019 05 22 04  14 40 16.008   +22 20 35.99  1.1553 1.9944 133.8 23.0 1066 117
2019 05 22 05  14 40 13.350   +22 20 10.96  1.1554 1.9944 133.8 23.0 1072 117
2019 05 22 06  14 40 10.696   +22 19 45.88  1.1556 1.9945 133.8 23.0 1079 117
2019 05 22 07  14 40 08.044   +22 19 20.75  1.1558 1.9945 133.7 23.0 1085 117
2019 05 22 08  14 40 05.395   +22 18 55.58  1.1560 1.9945 133.7 23.0 1091 117
2019 05 22 09  14 40 02.749   +22 18 30.37  1.1562 1.9946 133.7 23.0 1098 117
2019 05 22 10  14 40 00.105   +22 18 05.11  1.1564 1.9946 133.7 23.0 1104 117
2019 05 22 11  14 39 57.465   +22 17 39.81  1.1566 1.9946 133.6 23.0 1110 117
2019 05 22 12  14 39 54.827   +22 17 14.46  1.1568 1.9946 133.6 23.0 1117 117
2019 05 22 13  14 39 52.192   +22 16 49.06  1.1570 1.9947 133.6 23.0 1123 117
2019 05 22 14  14 39 49.560   +22 16 23.62  1.1572 1.9947 133.6 23.0 1130 117
2019 05 22 15  14 39 46.930   +22 15 58.14  1.1574 1.9947 133.6 23.0 1136 117
2019 05 22 16  14 39 44.304   +22 15 32.61  1.1576 1.9948 133.5 23.0 1143 117
2019 05 22 17  14 39 41.680   +22 15 07.03  1.1578 1.9948 133.5 23.0 1149 117
2019 05 22 18  14 39 39.059   +22 14 41.41  1.1580 1.9948 133.5 23.0 1156 117
2019 05 22 19  14 39 36.441   +22 14 15.75  1.1582 1.9949 133.5 23.0 1162 117
2019 05 22 20  14 39 33.826   +22 13 50.04  1.1584 1.9949 133.5 23.0 1169 117
2019 05 22 21  14 39 31.214   +22 13 24.29  1.1586 1.9949 133.4 23.0 1175 117
2019 05 22 22  14 39 28.604   +22 12 58.49  1.1588 1.9949 133.4 23.0 1182 117
2019 05 22 23  14 39 25.998   +22 12 32.65  1.1590 1.9950 133.4 23.0 1188 117
2019 05 23 00  14 39 23.394   +22 12 06.76  1.1592 1.9950 133.4 23.0 1195 117
2019 05 23 01  14 39 20.793   +22 11 40.83  1.1594 1.9950 133.3 23.0 1202 117
2019 05 23 02  14 39 18.195   +22 11 14.86  1.1596 1.9951 133.3 23.0 1208 117
2019 05 23 03  14 39 15.600   +22 10 48.84  1.1598 1.9951 133.3 23.0 1215 117
2019 05 23 04  14 39 13.007   +22 10 22.77  1.1600 1.9951 133.3 23.0 1222 117
2019 05 23 05  14 39 10.418   +22 09 56.66  1.1602 1.9951 133.3 23.0 1228 117
2019 05 23 06  14 39 07.831   +22 09 30.51  1.1604 1.9952 133.2 23.0 1235 117
2019 05 23 07  14 39 05.248   +22 09 04.31  1.1606 1.9952 133.2 23.0 1242 117
2019 05 23 08  14 39 02.667   +22 08 38.07  1.1608 1.9952 133.2 23.0 1249 116